Weather History for La Porte, IN

Change the Weather History Date:

Monday, November 26, 2012

  Actual Average (KVPZ) Record (KVPZ)
Temperature  
Mean Temperature 28 °F 36 °F  
Max Temperature 36 °F 43 °F 60 °F (2006)
Min Temperature 20 °F 29 °F 19 °F (2010)
Degree Days  
Heating Degree Days 37 29  
Month to date heating degree days 605  
Since 1 July heating degree days 1135  
Cooling Degree Days 0 0  
Month to date cooling degree days 0  
Year to date cooling degree days 713  
Moisture  
Dew Point 23 °F    
Average Humidity 72    
Maximum Humidity 93    
Minimum Humidity 55    
Precipitation  
Precipitation 0.00 in 0.10 in 0.19 in (2009)
Month to date precipitation 2.92  
Year to date precipitation 34.92  
Sea Level Pressure  
Sea Level Pressure 30.20 in    
Wind  
Wind Speed 4 mph ()    
Max Wind Speed 15 mph    
Max Gust Speed 20 mph    
Visibility 10.0 miles    
Events      
T = Trace of Precipitation, MM = Missing Value Source: Averaged Metar Reports

Daily Weather History Graph

Daily Weather History Graph

Search for Another Location

Airport:

Trip Planner

Search our weather history database for the weather conditions in past years. The results will help you decide how hot, cold, wet, or windy it might be!

Date:

Astronomy

Nov. 26, 2012 Rise Set
Actual Time 6:49 AM CST 4:19 PM CST
Civil Twilight 6:18 AM CST 4:49 PM CST
Nautical Twilight 5:44 AM CST 5:24 PM CST
Astronomical Twilight 5:11 AM CST 5:57 PM CST
Moon 3:11 PM CST (11/26) 4:58 AM CST (11/26)
Length of Visible Light 10h 31m
Length of Day
9h 30m
Waxing Gibbous, 97% of the Moon is Illuminated
Nov 26
Waxing Gibbous
Nov 28
Full
Dec 6
Last Quarter
Dec 13
New
Dec 19
First Quarter

Hourly Weather History & Observations

Time (CST) Temp. Windchill Dew Point Humidity Pressure Visibility Wind Dir Wind Speed Gust Speed Precip Events Conditions
12:15 AM 32.4 °F - 26.4 °F 79% 30.05 in 10.0 mi Calm Calm - N/A   Mostly Cloudy
12:35 AM 32.0 °F 28.7 °F 25.9 °F 78% 30.05 in 10.0 mi NW 3.5 mph - N/A   Scattered Clouds
12:55 AM 28.4 °F - 23.9 °F 83% 30.06 in 10.0 mi Calm Calm - N/A   Clear
1:15 AM 27.5 °F - 24.1 °F 87% 30.06 in 10.0 mi Calm Calm - N/A   Scattered Clouds
1:35 AM 28.2 °F 24.4 °F 23.2 °F 81% 30.07 in 10.0 mi NW 3.5 mph - N/A   Scattered Clouds
1:55 AM 24.3 °F - 21.0 °F 87% 30.07 in 10.0 mi Calm Calm - N/A   Scattered Clouds
2:15 AM 24.4 °F 20.1 °F 22.1 °F 91% 30.08 in 10.0 mi West 3.5 mph - N/A   Mostly Cloudy
2:35 AM 24.8 °F - 22.6 °F 91% 30.09 in 10.0 mi Calm Calm - N/A   Scattered Clouds
2:55 AM 24.6 °F 20.3 °F 22.5 °F 91% 30.09 in 10.0 mi SSW 3.5 mph - N/A   Clear
3:15 AM 24.4 °F - 22.6 °F 93% 30.09 in 10.0 mi Calm Calm - N/A   Clear
3:35 AM 21.6 °F - 18.9 °F 89% 30.10 in 10.0 mi Calm Calm - N/A   Clear
3:55 AM 21.7 °F - 19.6 °F 91% 30.10 in 10.0 mi Calm Calm - N/A   Clear
4:15 AM 22.1 °F 17.4 °F 20.1 °F 92% 30.11 in 10.0 mi West 3.5 mph - N/A   Clear
4:35 AM 23.0 °F - 21.2 °F 93% 30.11 in 10.0 mi Calm Calm - N/A   Scattered Clouds
4:55 AM 20.7 °F - 18.3 °F 91% 30.12 in 10.0 mi Calm Calm - N/A   Clear
5:15 AM 22.3 °F - 20.1 °F 91% 30.13 in 10.0 mi Calm Calm - N/A   Scattered Clouds
5:35 AM 23.9 °F 16.8 °F 22.1 °F 93% 30.13 in 10.0 mi NNW 5.8 mph - N/A   Scattered Clouds
5:55 AM 23.9 °F 19.5 °F 21.6 °F 91% 30.14 in 10.0 mi West 3.5 mph - N/A   Scattered Clouds
6:15 AM 25.5 °F 21.3 °F 23.5 °F 92% 30.16 in 10.0 mi NW 3.5 mph - N/A   Mostly Cloudy
6:35 AM 27.9 °F - 25.3 °F 90% 30.16 in 10.0 mi Calm Calm - N/A   Overcast
6:55 AM 25.9 °F - 23.2 °F 90% 30.16 in 10.0 mi Calm Calm - N/A   Mostly Cloudy
7:15 AM 26.2 °F - 24.1 °F 92% 30.16 in 10.0 mi Calm Calm - N/A   Scattered Clouds
7:35 AM 25.7 °F 20.1 °F 23.5 °F 92% 30.18 in 7.0 mi West 4.6 mph - N/A   Scattered Clouds
7:55 AM 29.3 °F 24.3 °F 27.1 °F 92% 30.19 in 10.0 mi West 4.6 mph - N/A   Clear
8:15 AM 31.8 °F - 27.7 °F 85% 30.19 in 10.0 mi Calm Calm - N/A   Clear
8:35 AM 33.8 °F 30.8 °F 27.5 °F 78% 30.20 in 10.0 mi West 3.5 mph - N/A   Clear
8:55 AM 35.2 °F 29.5 °F 27.0 °F 72% 30.19 in 10.0 mi North 6.9 mph - N/A   Scattered Clouds
9:15 AM 35.8 °F 28.3 °F 26.4 °F 69% 30.20 in 10.0 mi North 10.4 mph - N/A   Mostly Cloudy
9:35 AM 35.4 °F 29.0 °F 25.7 °F 68% 30.21 in 10.0 mi NNW 8.1 mph - N/A   Overcast
9:55 AM 36.0 °F 29.0 °F 24.6 °F 63% 30.21 in 10.0 mi North 9.2 mph 17.3 mph N/A   Mostly Cloudy
10:15 AM 36.1 °F 29.3 °F 23.2 °F 59% 30.22 in 10.0 mi North 9.2 mph - N/A   Mostly Cloudy
10:35 AM 35.4 °F 29.0 °F 22.8 °F 60% 30.22 in 10.0 mi North 8.1 mph - N/A   Scattered Clouds
10:55 AM 35.4 °F 29.7 °F 22.3 °F 59% 30.21 in 10.0 mi North 6.9 mph - N/A   Scattered Clouds
11:15 AM 35.6 °F 29.2 °F 22.5 °F 59% 30.20 in 10.0 mi NNW 8.1 mph - N/A   Mostly Cloudy
11:35 AM 35.6 °F 30.7 °F 21.9 °F 58% 30.21 in 10.0 mi WNW 5.8 mph - N/A   Mostly Cloudy
11:55 AM 36.0 °F 26.7 °F 22.3 °F 58% 30.20 in 10.0 mi NNW 15.0 mph 19.6 mph N/A   Mostly Cloudy
12:15 PM 36.0 °F 30.3 °F 21.9 °F 57% 30.20 in 10.0 mi WNW 6.9 mph - N/A   Scattered Clouds
12:35 PM 36.1 °F 28.2 °F 21.4 °F 55% 30.21 in 10.0 mi NNW 11.5 mph - N/A   Scattered Clouds
12:55 PM 35.6 °F 29.2 °F 21.6 °F 57% 30.22 in 10.0 mi North 8.1 mph - N/A   Scattered Clouds
1:15 PM 35.4 °F 29.0 °F 21.9 °F 58% 30.22 in 10.0 mi NNW 8.1 mph - N/A   Mostly Cloudy
1:35 PM 35.1 °F 26.9 °F 21.2 °F 57% 30.21 in 10.0 mi North 11.5 mph - N/A   Mostly Cloudy
1:55 PM 35.1 °F 27.9 °F 21.2 °F 57% 30.21 in 10.0 mi NNW 9.2 mph - N/A   Mostly Cloudy
2:15 PM 34.7 °F 28.1 °F 21.9 °F 60% 30.21 in 10.0 mi NNW 8.1 mph - N/A   Overcast
2:35 PM 34.3 °F 27.7 °F 22.5 °F 62% 30.22 in 10.0 mi NNW 8.1 mph - N/A   Overcast
2:55 PM 33.8 °F 25.8 °F 22.3 °F 63% 30.23 in 10.0 mi NNW 10.4 mph - N/A   Overcast
3:15 PM 33.4 °F 24.3 °F 21.9 °F 63% 30.23 in 10.0 mi North 12.7 mph - N/A   Overcast
3:35 PM 33.1 °F 24.9 °F 21.2 °F 62% 30.24 in 10.0 mi North 10.4 mph - N/A   Overcast
3:55 PM 32.9 °F 24.7 °F 21.0 °F 62% 30.24 in 10.0 mi NNW 10.4 mph - N/A   Mostly Cloudy
4:15 PM 32.5 °F 24.8 °F 20.7 °F 62% 30.23 in 10.0 mi North 9.2 mph - N/A   Overcast
4:35 PM 32.4 °F 26.0 °F 21.0 °F 63% 30.23 in 10.0 mi North 6.9 mph - N/A   Overcast
4:55 PM 32.4 °F 26.0 °F 21.2 °F 63% 30.24 in 10.0 mi North 6.9 mph - N/A   Overcast
5:15 PM 32.4 °F 27.9 °F 21.6 °F 64% 30.24 in 10.0 mi North 4.6 mph - N/A   Overcast
5:35 PM 32.5 °F 27.1 °F 22.1 °F 65% 30.26 in 10.0 mi NNW 5.8 mph - N/A   Overcast
5:55 PM 32.5 °F 27.1 °F 22.6 °F 67% 30.26 in 10.0 mi NNW 5.8 mph - N/A   Overcast
6:15 PM 32.5 °F 26.2 °F 22.6 °F 67% 30.28 in 10.0 mi NNW 6.9 mph - N/A   Overcast
6:35 PM 32.9 °F 25.9 °F 22.3 °F 65% 30.28 in 10.0 mi NW 8.1 mph - N/A   Overcast
6:55 PM 32.7 °F 26.4 °F 22.6 °F 66% 30.28 in 10.0 mi NNW 6.9 mph - N/A   Overcast
7:15 PM 32.9 °F 25.9 °F 22.5 °F 65% 30.28 in 10.0 mi NNW 8.1 mph - N/A   Overcast
7:35 PM 32.9 °F 25.9 °F 22.5 °F 65% 30.28 in 10.0 mi NNW 8.1 mph - N/A   Overcast
7:55 PM 32.9 °F 26.7 °F 22.1 °F 65% 30.29 in 10.0 mi NNW 6.9 mph - N/A   Overcast
8:15 PM 32.7 °F 27.3 °F 22.1 °F 65% 30.29 in 10.0 mi NNW 5.8 mph - N/A   Overcast
8:35 PM 32.9 °F 26.7 °F 22.3 °F 65% 30.29 in 10.0 mi NW 6.9 mph - N/A   Overcast
8:55 PM 32.9 °F 27.5 °F 22.1 °F 65% 30.30 in 10.0 mi NNW 5.8 mph - N/A   Overcast
9:15 PM 32.7 °F 28.3 °F 22.3 °F 65% 30.31 in 10.0 mi NW 4.6 mph - N/A   Overcast
9:35 PM 32.5 °F 28.1 °F 22.6 °F 67% 30.31 in 10.0 mi NW 4.6 mph - N/A   Overcast
9:55 PM 32.5 °F 28.1 °F 22.8 °F 67% 30.31 in 10.0 mi NNW 4.6 mph - N/A   Overcast
10:15 PM 32.2 °F 26.7 °F 23.0 °F 69% 30.31 in 10.0 mi NW 5.8 mph - N/A   Overcast
10:35 PM 32.5 °F 26.2 °F 23.2 °F 68% 30.31 in 10.0 mi NW 6.9 mph - N/A   Overcast
10:55 PM 32.5 °F 26.2 °F 22.6 °F 67% 30.32 in 10.0 mi NW 6.9 mph - N/A   Overcast
11:15 PM 32.4 °F 27.9 °F 22.5 °F 67% 30.32 in 10.0 mi NNW 4.6 mph - N/A   Overcast
11:35 PM 32.4 °F 26.0 °F 22.3 °F 66% 30.32 in 10.0 mi NNW 6.9 mph - N/A   Overcast
11:55 PM 32.2 °F 26.7 °F 22.1 °F 66% 30.32 in 10.0 mi NNW 5.8 mph - N/A   Overcast